Flag for Germany Weather past 2 weeks in Schwäbisch Hall, Baden-Württemberg, Germany

Now
67 °F

Overcast.


Feels Like: 67 °F
Forecast: 58 / 74 °F
Wind: 2 mph from North

Location: Oehringen

Current Time: Jul 30, 2014 at 11:38:37 PM

Latest Report: Jul 30, 2014 at 11:00 PM


Visibility: 10 mi

Pressure: 29.93 "Hg

Humidity: 80%

Dew point: 60 °F

Location of Schwäbisch HallLocation

Historic Weather in Schwäbisch Hall — Graph

°F

Schwäbisch Hall temperature yesterday

Maximum temperature yesterday: 75 °F (at 3:00 PM)
Minimum temperature yesterday: 62 °F (at 7:00 AM)
Average temperature yesterday: 66 °F

Past Weeks' High & Low Weather Summary

 TemperatureHumidityPressure
High93 °F (Jul 19, 5:00 PM)98% (Jul 22, 4:00 AM)30.20 "Hg (Jul 22, 4:00 AM)
Low56 °F (Jul 16, 6:00 AM)21% (Jul 19, 5:00 PM)29.72 "Hg (Jul 28, 7:00 PM)
Average71 °F68%29.93 "Hg
* Reported Jul 15 10:00 PM — Jul 30 10:00 PM, Schwäbisch Hall, Weather by CustomWeather, © 2014

Note: Actual official high and low records may vary slightly from our data, if they occured in-between our weather recording intervals... More about our weather records

Advertising

Schwäbisch Hall weather history for previous 24 hours

 ConditionsComfort  
Time TempWeatherWind HumidityBarometerVisibility
10:00 PM
Jul 30
67 °FOvercast.2 mph83%29.91 "Hg10 mi
9:00 PM68 °FOvercast.5 mph79%29.89 "Hg11 mi
8:00 PM69 °FOvercast.7 mph77%29.86 "Hg15 mi
7:00 PM69 °FOvercast.6 mph77%29.84 "Hg17 mi
6:00 PM71 °FOvercast.6 mph77%29.83 "Hg14 mi
5:00 PM71 °FOvercast.7 mph76%29.82 "Hg22 mi
4:00 PM72 °FOvercast.5 mph72%29.80 "Hg31 mi
3:00 PM72 °FOvercast.3 mph75%29.80 "Hg25 mi
2:00 PM71 °FOvercast.6 mph81%29.79 "Hg19 mi
1:00 PM70 °FLow clouds.2 mph89%29.79 "Hg12 mi
12:00 PM67 °FDrizzle. Low clouds.2 mph95%29.80 "Hg3 mi
11:00 AM65 °FDrizzle. Low clouds.2 mph96%29.79 "Hg3 mi
10:00 AM64 °FLight freezing rain. Low clouds.3 mph98%29.79 "Hg1 mi
9:00 AM64 °FDrizzle. Low clouds.3 mph97%29.78 "Hg1 mi
8:00 AM64 °FDrizzle. Low clouds.2 mph97%29.77 "Hg3 mi
7:00 AM64 °FLight freezing rain. Low clouds.2 mph98%29.76 "Hg2 mi
6:00 AM64 °FRain. Low clouds.3 mph97%29.76 "Hg1 mi
5:00 AM64 °FLow clouds.2 mph97%29.76 "Hg1 mi
4:00 AM64 °FFog.2 mph96%29.76 "Hg1 mi
3:00 AM64 °FFog.2 mph96%29.77 "Hg2 mi
2:00 AM64 °FFog.3 mph96%29.76 "Hg2 mi
1:00 AM64 °FLow clouds.3 mph96%29.77 "Hg2 mi
12:00 AM65 °FDrizzle. Low clouds.2 mph97%29.78 "Hg2 mi
11:00 PM
Jul 29
65 °FLight rain. Low clouds.3 mph97%29.77 "Hg1 mi
Weather by CustomWeather, © 2014

See weather overviewHow to use our weather pages